CW5575 Weather Reports


Display with metric or nautical units.
time (UTC)temp
F
wind
direction
speed
MPH
gust
MPH
rain 1hr
in
rain 24hr
in
rain mn
in
humidity
%
barometer
mb
20210614155847 93 42 0.0 4.0 0.00 0.00 0.00 70 1013.9
20210614155343 93 37 0.0 4.0 0.00 0.00 0.00 71 1013.9
20210614154840 93 36 0.0 4.0 0.00 0.00 0.00 72 1013.8
20210614154348 93 38 0.0 4.0 0.00 0.00 0.00 73 1013.8
20210614153837 93 37 0.0 1.0 0.00 0.00 0.00 72 1013.7
20210614153335 93 38 0.0 1.0 0.00 0.00 0.00 72 1013.7
20210614152818 93 39 0.0 4.0 0.00 0.00 0.00 72 1013.6
20210614152308 93 29 0.0 4.0 0.00 0.00 0.00 71 1013.5
20210614151750 93 338 0.0 3.0 0.00 0.00 0.00 73 1013.5
20210614150056 91 331 0.0 1.0 0.00 0.00 0.00 78 1013.5
20210614145558 90 330 0.0 3.0 0.00 0.00 0.00 79 1013.5
20210614145106 89 330 0.0 3.0 0.00 0.00 0.00 83 1013.5
20210614144605 88 330 0.0 3.0 0.00 0.00 0.00 84 1013.5
20210614144050 87 330 0.0 2.0 0.00 0.00 0.00 86 1013.5
20210614143544 86 330 0.0 0.0 0.00 0.00 0.00 87 1013.5
20210614143037 85 330 0.0 2.0 0.00 0.00 0.00 88 1013.4
20210614142542 84 330 0.0 2.0 0.00 0.00 0.00 88 1013.5
20210614142044 84 330 0.0 5.0 0.00 0.00 0.00 88 1013.4
20210614141538 84 330 0.0 5.0 0.00 0.00 0.00 89 1013.5
20210614141043 83 308 0.0 4.0 0.00 0.00 0.00 89 1013.5
20210614140536 83 308 0.0 3.0 0.00 0.00 0.00 89 1013.5
20210614140036 83 308 0.0 3.0 0.00 0.00 0.00 90 1013.4
20210614135526 83 308 0.0 2.0 0.00 0.00 0.00 90 1013.4
20210614135032 82 308 0.0 1.0 0.00 0.00 0.00 91 1013.3
20210614134518 82 308 0.0 0.0 0.00 0.00 0.00 91 1013.4
20210614134028 82 307 0.0 2.0 0.00 0.00 0.00 91 1013.3
20210614133535 81 309 0.0 1.0 0.00 0.00 0.00 91 1013.2
20210614131818 81 303 0.0 0.0 0.00 0.00 0.00 92 1013.2
20210614131312 80 303 0.0 0.0 0.00 0.00 0.00 92 1013.2
20210614130754 80 303 0.0 1.0 0.00 0.00 0.00 92 1013.2
20210614130247 80 303 0.0 0.0 0.00 0.00 0.00 92 1013.2
20210614125739 80 304 0.0 0.0 0.00 0.00 0.00 92 1013.1
20210614125221 80 304 0.0 1.0 0.00 0.00 0.00 92 1013.1
20210614124715 79 304 0.0 1.0 0.00 0.00 0.00 92 1013.1
20210614124202 79 307 0.0 0.0 0.00 0.00 0.00 92 1013.0
20210614123650 79 303 0.0 0.0 0.00 0.00 0.00 92 1013.0
20210614123155 79 303 0.0 1.0 0.00 0.00 0.00 92 1013.0
20210614122645 79 303 0.0 1.0 0.00 0.00 0.00 92 1013.0
20210614122126 79 303 0.0 0.0 0.00 0.00 0.00 92 1012.9
20210614121625 79 303 0.0 0.0 0.00 0.00 0.00 91 1012.8
20210614121134 79 303 0.0 0.0 0.00 0.00 0.00 91 1012.9
20210614120630 79 304 0.0 0.0 0.00 0.00 0.00 91 1013.0
20210614120130 79 304 0.0 0.0 0.00 0.00 0.00 91 1012.9
20210614115631 79 304 0.0 1.0 0.00 0.00 0.00 91 1012.8
20210614115137 79 304 0.0 0.0 0.00 0.00 0.00 91 1012.8
20210614114618 79 304 0.0 0.0 0.00 0.00 0.00 91 1012.6
20210614114118 79 304 0.0 1.0 0.00 0.00 0.00 91 1012.5
20210614113607 79 304 0.0 0.0 0.00 0.00 0.00 91 1012.4
20210614113115 79 304 0.0 2.0 0.00 0.00 0.00 91 1012.2
20210614112609 79 304 0.0 2.0 0.00 0.00 0.00 91 1012.2
20210614112109 79 304 0.0 2.0 0.00 0.00 0.00 91 1012.3
20210614111617 79 304 0.0 1.0 0.00 0.00 0.00 90 1012.3
20210614111120 79 304 0.0 2.0 0.00 0.00 0.00 90 1012.1
20210614110610 79 304 0.0 2.0 0.00 0.00 0.00 90 1012.2
20210614110103 79 304 0.0 0.0 0.00 0.00 0.00 90 1012.2
20210614105606 79 304 0.0 0.0 0.00 0.00 0.00 90 1012.2
20210614105047 79 304 0.0 1.0 0.00 0.00 0.00 90 1012.1
20210614104554 79 304 0.0 2.0 0.00 0.01 0.00 90 1012.0
20210614104051 79 304 0.0 3.0 0.00 0.01 0.00 91 1011.9
20210614103538 79 301 0.0 3.0 0.00 0.01 0.00 91 1011.7
20210614103027 79 301 0.0 3.0 0.00 0.01 0.00 91 1011.6
20210614102508 79 301 0.0 3.0 0.00 0.01 0.00 91 1011.6
20210614102012 79 300 0.0 3.0 0.00 0.01 0.00 91 1011.6
20210614101512 79 293 0.0 3.0 0.00 0.01 0.00 91 1011.5
20210614100956 79 284 0.0 3.0 0.00 0.01 0.00 91 1011.3
20210614100447 79 283 0.0 3.0 0.00 0.01 0.00 90 1011.2
20210614095940 79 283 0.0 3.0 0.00 0.01 0.00 90 1011.1
20210614095440 79 283 0.0 2.0 0.00 0.01 0.00 90 1011.1
20210614094922 79 283 0.0 2.0 0.00 0.01 0.00 90 1011.1
20210614094404 79 283 0.0 0.0 0.00 0.01 0.00 90 1011.1
20210614093851 79 283 0.0 2.0 0.00 0.01 0.00 90 1011.1
20210614093334 79 283 0.0 2.0 0.00 0.01 0.00 90 1011.2
20210614092834 79 283 0.0 2.0 0.00 0.01 0.00 90 1011.2
20210614092332 80 283 0.0 2.0 0.00 0.01 0.00 90 1011.2
20210614091823 80 283 0.0 1.0 0.00 0.01 0.00 90 1011.3
20210614091325 80 283 0.0 1.0 0.00 0.01 0.00 90 1011.4
20210614090821 80 283 0.0 1.0 0.00 0.01 0.00 90 1011.2
20210614090309 80 283 0.0 0.0 0.00 0.01 0.00 90 1011.2
20210614085800 80 283 0.0 1.0 0.00 0.01 0.00 90 1011.2
20210614085247 80 283 0.0 0.0 0.00 0.01 0.00 90 1011.2
20210614084750 80 283 0.0 0.0 0.00 0.01 0.00 90 1011.1
20210614084243 80 283 0.0 0.0 0.00 0.01 0.00 90 1011.2
20210614083740 80 283 0.0 0.0 0.00 0.01 0.00 90 1011.3
20210614083244 80 283 0.0 0.0 0.00 0.01 0.00 90 1011.4
20210614082741 80 283 0.0 1.0 0.00 0.01 0.00 90 1011.5
20210614082234 80 283 0.0 0.0 0.00 0.01 0.00 90 1011.6
20210614081722 80 283 0.0 2.0 0.00 0.01 0.00 90 1011.8
20210614081223 80 283 0.0 2.0 0.00 0.01 0.00 90 1011.9
20210614080720 80 283 0.0 2.0 0.00 0.01 0.00 90 1012.0
20210614080202 80 283 0.0 2.0 0.00 0.01 0.00 90 1012.2
20210614075655 80 283 0.0 1.0 0.00 0.01 0.00 90 1012.2
20210614075139 80 283 0.0 1.0 0.00 0.01 0.00 90 1012.3
20210614074636 80 283 0.0 1.0 0.00 0.01 0.00 90 1012.2
20210614074140 80 283 0.0 0.0 0.00 0.01 0.00 90 1012.2
20210614073642 80 283 0.0 0.0 0.00 0.01 0.00 90 1012.2
20210614073136 80 283 0.0 0.0 0.00 0.01 0.00 90 1012.2
20210614072624 80 283 0.0 0.0 0.00 0.01 0.00 90 1012.2
20210614072113 80 283 0.0 0.0 0.00 0.01 0.00 90 1012.3
20210614071601 80 283 0.0 0.0 0.00 0.01 0.00 90 1012.2
20210614071105 80 283 0.0 0.0 0.00 0.01 0.00 90 1012.2
20210614070550 80 283 0.0 0.0 0.00 0.01 0.00 90 1012.1
20210614070047 80 283 0.0 0.0 0.00 0.01 0.00 90 1012.1
20210614065556 80 283 0.0 0.0 0.00 0.01 0.00 89 1012.2
20210614065044 80 283 0.0 0.0 0.00 0.01 0.00 89 1012.3
20210614064525 80 283 0.0 0.0 0.00 0.01 0.00 89 1012.2
20210614064015 80 283 0.0 0.0 0.00 0.01 0.00 89 1012.3
20210614063519 80 283 0.0 0.0 0.00 0.01 0.00 89 1012.3
20210614063012 80 283 0.0 0.0 0.00 0.01 0.00 89 1012.3
20210614062459 80 283 0.0 0.0 0.00 0.01 0.00 89 1012.3
20210614061948 80 283 0.0 0.0 0.00 0.01 0.00 89 1012.4
20210614061431 81 283 0.0 0.0 0.00 0.01 0.00 89 1012.4
20210614060912 81 283 0.0 0.0 0.00 0.01 0.00 89 1012.4
20210614060412 81 283 0.0 0.0 0.00 0.01 0.00 89 1012.5
20210614055903 81 283 0.0 0.0 0.00 0.01 0.00 89 1012.6
20210614055404 81 283 0.0 0.0 0.00 0.01 0.00 89 1012.7
20210614054854 81 283 0.0 1.0 0.00 0.01 0.00 88 1012.6
20210614054405 81 283 0.0 0.0 0.00 0.01 0.00 88 1012.5
20210614053906 81 283 0.0 0.0 0.00 0.01 0.00 88 1012.6
20210614053354 81 283 0.0 0.0 0.00 0.01 0.00 88 1012.5
20210614052901 81 283 0.0 0.0 0.00 0.01 0.00 88 1012.5
20210614052408 81 283 0.0 0.0 0.00 0.01 0.00 87 1012.5
20210614051849 81 283 0.0 0.0 0.00 0.01 0.00 88 1012.4
20210614051359 81 283 0.0 0.0 0.00 0.01 0.00 87 1012.3
20210614050842 81 283 0.0 0.0 0.00 0.01 0.00 87 1012.3
20210614050343 82 283 0.0 0.0 0.00 0.01 0.00 87 1012.2
20210614045846 82 283 0.0 0.0 0.00 0.01 0.01 87 1012.3
20210614045336 82 283 0.0 0.0 0.00 0.01 0.01 87 1012.3
20210614044827 82 283 0.0 0.0 0.00 0.01 0.01 86 1012.2
20210614044330 82 283 0.0 0.0 0.00 0.01 0.01 85 1012.2
20210614043829 82 283 0.0 0.0 0.00 0.01 0.01 85 1012.1
20210614043324 82 283 0.0 0.0 0.00 0.01 0.01 85 1012.2
20210614042812 82 283 0.0 0.0 0.00 0.01 0.01 85 1012.2
20210614042253 82 283 0.0 0.0 0.00 0.01 0.01 85 1012.1
20210614041803 82 283 0.0 0.0 0.00 0.01 0.01 85 1012.0
20210614041253 83 283 0.0 0.0 0.00 0.01 0.01 85 1011.9
20210614040800 83 283 0.0 0.0 0.00 0.01 0.01 84 1011.9
20210614040256 83 283 0.0 0.0 0.00 0.01 0.01 84 1011.8
20210614035801 83 283 0.0 0.0 0.00 0.01 0.01 84 1011.7
20210614035305 83 283 0.0 0.0 0.00 0.01 0.01 84 1011.6
20210614034809 83 283 0.0 0.0 0.00 0.01 0.01 84 1011.6
20210614034316 83 283 0.0 0.0 0.00 0.01 0.01 84 1011.6
20210614033810 83 283 0.0 0.0 0.00 0.01 0.01 83 1011.6
20210614033319 83 283 0.0 0.0 0.00 0.01 0.01 83 1011.5
20210614032818 84 283 0.0 0.0 0.00 0.01 0.01 83 1011.5
20210614032300 84 283 0.0 0.0 0.00 0.01 0.01 82 1011.4
20210614031745 84 283 0.0 0.0 0.00 0.01 0.01 82 1011.4
20210614031240 84 283 0.0 0.0 0.00 0.01 0.01 81 1011.4
20210614030745 84 283 0.0 0.0 0.00 0.01 0.01 81 1011.3
20210614030254 84 283 0.0 0.0 0.00 0.01 0.01 81 1011.3
20210614025753 85 283 0.0 0.0 0.00 0.01 0.01 81 1011.3
20210614025237 85 283 0.0 0.0 0.00 0.01 0.01 81 1011.3
20210614024734 85 283 0.0 0.0 0.00 0.01 0.01 81 1011.3
20210614024220 85 283 0.0 0.0 0.00 0.01 0.01 80 1011.1
20210614023707 85 283 0.0 0.0 0.00 0.01 0.01 81 1011.0
20210614023210 85 283 0.0 0.0 0.00 0.01 0.01 80 1011.0
20210614022718 86 283 0.0 0.0 0.00 0.01 0.01 80 1011.0
20210614022204 86 283 0.0 0.0 0.00 0.01 0.01 79 1010.9
20210614021701 86 283 0.0 0.0 0.00 0.01 0.01 79 1010.9
20210614021143 86 283 0.0 0.0 0.00 0.01 0.01 79 1010.8
20210614020646 87 283 0.0 0.0 0.00 0.01 0.01 79 1010.9
20210614020130 87 283 0.0 0.0 0.00 0.01 0.01 77 1010.9
20210614015626 87 283 0.0 0.0 0.00 0.01 0.01 77 1010.9
20210614015116 88 283 0.0 0.0 0.00 0.01 0.01 76 1010.9
20210614014616 88 283 0.0 0.0 0.00 0.01 0.01 75 1010.9
20210614014115 88 283 0.0 0.0 0.00 0.01 0.01 75 1010.9
20210614013555 89 283 0.0 0.0 0.00 0.01 0.01 75 1010.9
20210614013037 89 283 0.0 0.0 0.00 0.01 0.01 75 1010.8
20210613220114 100 283 0.0 3.0 0.00 0.01 0.01 52 1011.1
20210613215615 100 283 1.0 3.0 0.00 0.01 0.01 53 1011.2
20210613215057 100 283 1.0 3.0 0.00 0.01 0.01 53 1011.3
20210613214549 100 283 1.0 2.0 0.00 0.01 0.01 52 1011.3
20210613214033 100 283 1.0 3.0 0.00 0.01 0.01 52 1011.4
20210613213532 100 283 1.0 3.0 0.00 0.01 0.01 53 1011.4
20210613213022 100 283 0.0 3.0 0.00 0.01 0.01 53 1011.4
20210613212510 100 283 0.0 2.0 0.00 0.01 0.01 53 1011.6
20210613212014 100 283 0.0 4.0 0.00 0.01 0.01 56 1011.6
20210613211523 100 284 0.0 4.0 0.00 0.01 0.01 54 1011.7
20210613211032 100 284 0.0 4.0 0.00 0.01 0.01 54 1011.7
20210613210523 99 284 0.0 4.0 0.00 0.01 0.01 54 1011.8
20210613210007 99 283 1.0 2.0 0.00 0.01 0.01 56 1011.8
20210613205454 99 283 1.0 3.0 0.00 0.01 0.01 53 1011.8
20210613204945 99 283 1.0 3.0 0.00 0.01 0.01 57 1011.8
20210613204447 99 283 1.0 4.0 0.00 0.01 0.01 57 1011.9
20210613203933 99 283 1.0 4.0 0.00 0.01 0.01 56 1012.0
20210613203438 99 283 1.0 4.0 0.00 0.01 0.01 58 1012.0
20210613202938 99 283 1.0 4.0 0.00 0.01 0.01 58 1012.0
20210613202424 99 283 1.0 3.0 0.00 0.01 0.01 56 1012.1
20210613201913 99 284 0.0 5.0 0.00 0.01 0.01 57 1012.1
20210613201356 99 285 1.0 5.0 0.00 0.01 0.01 58 1012.2
20210613200851 99 285 1.0 5.0 0.00 0.01 0.01 59 1012.2
20210613200346 98 285 0.0 5.0 0.00 0.01 0.01 57 1012.2
20210613195850 98 285 0.0 2.0 0.00 0.01 0.01 60 1012.1
20210613195359 98 284 1.0 5.0 0.00 0.01 0.01 61 1012.2
20210613194906 97 283 1.0 5.0 0.00 0.01 0.01 59 1012.4
20210613194350 97 283 2.0 5.0 0.00 0.01 0.01 61 1012.5
20210613193854 97 284 1.0 5.0 0.00 0.01 0.01 61 1012.5
20210613193346 97 284 0.0 7.0 0.00 0.01 0.01 61 1012.6
20210613192834 97 285 1.0 7.0 0.00 0.01 0.01 60 1012.6
20210613192316 98 286 2.0 7.0 0.00 0.01 0.01 60 1012.6
20210613191821 98 287 2.0 7.0 0.00 0.02 0.01 60 1012.6
20210613191321 98 302 1.0 4.0 0.00 0.02 0.01 59 1012.6
20210613180513 98 262 0.0 3.0 0.00 0.05 0.01 60 1012.8
20210613180005 98 262 1.0 3.0 0.00 0.06 0.01 59 1012.8
20210613174415 97 260 0.0 6.0 0.00 0.06 0.01 59 1012.7
20210613173915 97 260 1.0 6.0 0.00 0.06 0.01 60 1012.8
20210613173406 97 260 1.0 6.0 0.00 0.06 0.01 63 1012.9
20210613172903 96 255 1.0 6.0 0.00 0.06 0.01 65 1013.0
20210613172348 96 245 0.0 5.0 0.00 0.06 0.01 63 1013.2
20210613171829 96 245 0.0 5.0 0.00 0.06 0.01 63 1013.2
20210613171318 97 244 0.0 5.0 0.00 0.06 0.01 64 1013.2
20210613170807 97 245 0.0 5.0 0.00 0.06 0.01 62 1013.2
20210613161400 94 240 0.0 2.0 0.00 0.06 0.01 68 1013.3
20210613160857 94 240 0.0 0.0 0.00 0.06 0.01 69 1013.4
20210613160356 93 240 0.0 2.0 0.00 0.06 0.01 70 1013.5